Etusivu
METAR-TAF:

METAR-TAF

Lentoasemat :

Scotts Seaplane Base

Crane Lake, Minnesota, Yhdysvallat

Leveyspiiri: 48-15-59N, Pituuspiiri: 092-29-01W, korkeus merenpinnasta: 341 m

Tämänhetkinen sää

Tämä raportti tehtiin 23 minuuttia sitten, kello 02.37 UTC
tyyntä
Lämpötila -5°C
Kosteus 93%
Ilmanpaine 1022 hPa
Näkyvyys: 16.1 km
selkeää

METAR: KCDD 050237Z AUTO 00000KT 10SM CLR M05/M06 A3018 RMK AO2

Aika: 22:00 (03:00 UTC)


TAF: puuttuu

Säähavainnot ja -ennusteet yli 4000 lentoasemalta (METAR- ja TAF-raportit).

Käytössä olevat sääasemat on merkitty karttaan keltaisilla ja punaisilla pisteillä.

Aseta hiiri pisteen päälle nähdäksesi sääaseman nimen.

Klikkaa sitten nähdäksesi säähavainnot ja -ennusteet.

Kartan vaihtaminen: klikkaa mustalla rastilla varustettuja vihreitä pisteitä, niin voit zoomata sisään; viivalla varustettua vihreää pistettä, niin voit zoomata ulos tai vihreitä nuolia, niin pääset viereisille kartoille.


METAR-TAF: